Regional Weather Roundup
Issued by NWS Kansas City/Pleasant Hill, MO

Home | Current Version | Previous Version | Text Only | Print | Product List | Glossary On
Versions: 1 2 3 4 5 6 7 8 9 10 11 12 13 14 15 16 17 18 19 20 21 22 23 24 25 26 27 28 29 30 31 32 33 34 35 36 37 38 39 40 41 42 43 44 45 46 47 48 49 50
000
ASUS43 KEAX 090710
RWREAX

WEATHER ROUNDUP FOR EASTERN KANSAS AND NORTHWEST MISSOURI
NATIONAL WEATHER SERVICE KANSAS CITY/PLEASANT HILL MO
100 AM CST TUE FEB 09 2016

KSZ040-057-103>105-MOZ028-029-037-043-090800-
...KANSAS CITY METROPOLITAN AREA...

CITY           SKY/WX    TMP DP  RH WIND       PRES   REMARKS
K.C. INTL      CLEAR     27  17  66 NW12      30.04F WCI  17
K.C. DOWNTOWN  CLEAR     30  17  58 NW13      30.05F WCI  20
LEES SUMMIT    CLEAR     26  16  65 NW9       30.03F WCI  17
OLATHE - IXD   MOCLDY    30  18  60 NW15G25   30.06F WCI  19
OLATHE - OJC   CLEAR     28  17  63 NW14      30.05F WCI  17
LAWRENCE       CLOUDY    31  20  63 NW10      30.08F WCI  22

$$

MOZ001>008-011>017-020>025-030>033-038>040-044>046-053-054-090800-
...NORTHERN AND CENTRAL MISSOURI...

CITY           SKY/WX    TMP DP  RH WIND       PRES   REMARKS
ST. JOSEPH     CLEAR     26  15  63 N16       30.06F WCI  14
MOSBY          SUNNY     27  19  74 NW9       30.05F WCI  17
WARRENSBURG    CLEAR     27  18  69 NW20G28   30.03F WCI  13
WHITEMAN AFB   CLEAR     24  14  66 NW14G24   30.01F WCI  11
CLINTON          N/A     28  19  69 NW9       30.05S WCI  20
SEDALIA        MOCLDY    25  14  63 NW21G31   30.01F WCI  11
WARSAW         NOT AVBL
CHILLICOTHE      N/A     22  11  62 NW14G22   30.02F WCI   9
KIRKSVILLE     LGT SNOW  19  11  70 NW18G26   29.94F WCI   4

$$

MOZ041-047>049-056>058-063>065-088>090-097-090800-
...EASTERN AND SOUTHERN MISSOURI...

CITY           SKY/WX    TMP DP  RH WIND       PRES   REMARKS
ST. LOUIS INTL FLURRIES  21  14  73 NW18G25   29.92S WCI   6
SPIRIT OF STL  LGT SNOW  21  13  71 NW12G20   29.94R WCI   9
COLUMBIA       FLURRIES  23  14  68 NW17G25   29.94F WCI   9
JEFFERSON CITY CLOUDY    25  13  60 NW23G31   29.97F WCI  10
ROLLA          CLOUDY    23  14  68 NW15      29.91F WCI  10
OSAGE BEACH    MOCLDY    25  10  54 NW7G21    29.98S WCI  17
SPRINGFIELD    CLEAR     28  13  53 NW17G25   30.01F WCI  16
BRANSON        PTCLDY    28  14  54 NW15G29   30.03R WCI  17
JOPLIN         CLEAR     29  17  61 NW14      30.10F WCI  18
WEST PLAINS    CLOUDY    28  14  55 NW15G26   29.94S WCI  16

$$

IAZ060-094-KSZ022-034>040-054-083-096-NEZ052-066-093-090800-
...KANSAS...SOUTHEAST NEBRASKA AND IOWA...

CITY           SKY/WX    TMP DP  RH WIND       PRES   REMARKS
TOPEKA         CLOUDY    33  20  58 NW14      30.09F WCI  23
MANHATTAN      CLEAR     30  20  66 W8        30.15F WCI  22
EMPORIA        CLEAR     30  18  60 NW13      30.11F WCI  20
CHANUTE        MOCLDY    31  19  61 W13       30.12F WCI  21
WICHITA        PTCLDY    29  19  66 NW10      30.19F WCI  20
OMAHA          CLEAR     23  12  62 N24G36    30.08S WCI   7
LINCOLN        CLOUDY    28  18  66 N20       30.13R WCI  15
FALLS CITY     CLEAR     29  16  58 NW16G25   30.07F WCI  17
LAMONI         CLOUDY    17   8  67 N22G31    30.00S WCI   0
DES MOINES     FLURRIES  15   7  70 NW17G24   30.00F WCI  -1

$$




USA.gov is the U.S. government's official web portal to all federal, state and local government web resources and services.